Overview Statistics Trail Chart Weather Telemetry Raw packets
 

This is the latest recevied weather packets stored in our database for station/object KN6WGU. If no packets are shown the sender has not sent any weather packets the latest 10 day(s).

<< 32 33 34 35 36 37 38 >>
Time Temp. Humidity Pressure Rain* Wind** Luminosity Snow
1788394177 30.56° C 68% 1006.8 hPa 0 mm - 1 W/m² -
1788393873 31.11° C 67% 1006.7 hPa 0 mm - 2 W/m² -
1788393571 31.11° C 66% 1006.9 hPa 0 mm - 3 W/m² -
1788393266 31.11° C 67% 1006.9 hPa 0 mm - 5 W/m² -
1788392961 31.11° C 65% 1006.8 hPa 0 mm - 7 W/m² -
1788392655 31.11° C 65% 1006.9 hPa 0 mm - 9 W/m² -
1788392355 31.67° C 65% 1006.7 hPa 0 mm - 12 W/m² -
1788392049 31.67° C 65% 1006.8 hPa 0 mm - 15 W/m² -
1788391748 31.67° C 65% 1006.8 hPa 0 mm - 20 W/m² -
1788391443 31.67° C 64% 1006.9 hPa 0 mm - 24 W/m² -
1788391142 32.22° C 64% 1007.2 hPa 0 mm - 28 W/m² -
1788390837 32.22° C 63% 1006.6 hPa 0 mm - 32 W/m² -
1788390527 32.22° C 63% 1006.7 hPa 0 mm - 37 W/m² -
1788390226 32.22° C 62% 1006.9 hPa 0 mm - 39 W/m² -
1788389925 32.22° C 63% 1006.8 hPa 0 mm - 46 W/m² -
1788389621 32.22° C 62% 1006.5 hPa 0 mm - 45 W/m² -
1788389319 32.22° C 63% 1006.7 hPa 0 mm - 42 W/m² -
1788389014 32.22° C 62% 1006.6 hPa 0 mm - 43 W/m² -
1788388712 32.22° C 62% 1006.7 hPa 0 mm - 33 W/m² -
1788388411 32.78° C 61% 1006.8 hPa 0 mm - 31 W/m² -
1788388105 32.78° C 61% 1006.8 hPa 0 mm - 45 W/m² -
1788387804 32.78° C 61% 1006.6 hPa 0 mm - 48 W/m² -
1788387499 32.78° C 61% 1006.8 hPa 0 mm - 47 W/m² -
1788387198 32.78° C 61% 1006.6 hPa 0 mm - 49 W/m² -
1788386894 32.78° C 61% 1006.7 hPa 0 mm - 51 W/m² -

* Rain latest hour (hover to see other rain measurements)
** Current wind speed in m/s (hover to see current wind gust speed)